FW1747 Weather Reports


time (UTC)temp
C
wind
direction
speed
KPH
gust
KPH
rain 1hr
cm
rain 24hr
cm
rain mn
cm
humidity
%
barometer
mb
20260505191522 14 334 0.0 0.0 0.00 0.00 0.00 72 1017.1
20260505190108 14 295 0.0 0.0 0.00 0.00 0.00 73 1017.1
20260505184507 14 359 0.0 0.0 0.00 0.00 0.00 73 1017.0
20260505183007 14 356 0.0 0.0 0.00 0.00 0.00 73 1017.1
20260505181505 14 359 0.0 0.0 0.00 0.00 0.00 71 1017.0
20260505180004 14 275 0.0 0.0 0.00 0.00 0.00 72 1017.0
20260505174503 14 309 0.0 0.0 0.00 0.00 0.00 73 1016.9
20260505173001 14 105 0.0 0.0 0.00 0.00 0.00 72 1016.8
20260505171600 14 346 0.0 0.0 0.00 0.00 0.00 75 1016.7
20260505170057 13 349 0.0 0.0 0.00 0.00 0.00 76 1016.7
20260505164555 12 199 0.0 0.0 0.00 0.00 0.00 76 1016.8
20260505163054 12 242 0.0 0.0 0.00 0.00 0.00 78 1016.6
20260505161549 12 224 0.0 0.0 0.00 0.00 0.00 80 1016.6
20260505153044 12 216 0.0 0.0 0.00 0.00 0.00 80 1016.6
20260505151543 12 130 0.0 0.0 0.00 0.00 0.00 82 1016.6
20260505124529 11 210 0.0 0.0 0.00 0.00 0.00 83 1015.5
20260505123027 11 209 0.0 0.0 0.00 0.00 0.00 84 1015.4
20260505121533 11 186 0.0 0.0 0.00 0.00 0.00 83 1015.5
20260505120026 11 214 0.0 0.0 0.00 0.00 0.00 83 1015.4
20260505114524 11 195 0.0 0.0 0.00 0.00 0.00 83 1015.4
20260505113022 11 205 0.0 0.0 0.00 0.00 0.00 83 1015.3
20260505111521 11 223 0.0 0.0 0.00 0.00 0.00 83 1015.2
20260505101520 11 200 0.0 0.0 0.00 0.00 0.00 84 1014.9
20260505100018 11 214 0.0 0.0 0.00 0.00 0.00 84 1015.0
20260505094512 11 169 0.0 0.0 0.00 0.00 0.00 84 1014.9
20260505093010 11 169 0.0 0.0 0.00 0.00 0.00 84 1014.7
20260505091509 11 169 0.0 0.0 0.00 0.00 0.00 85 1014.7
20260505090015 10 169 0.0 0.0 0.00 0.00 0.00 85 1014.6
20260505084507 10 169 0.0 0.0 0.00 0.00 0.00 84 1014.7
20260505083006 10 169 0.0 0.0 0.00 0.00 0.00 84 1014.5
20260505081506 10 217 0.0 0.0 0.00 0.00 0.00 84 1014.4
20260505080009 10 217 0.0 0.0 0.00 0.00 0.00 84 1014.4
20260505074502 10 173 0.0 0.0 0.00 0.00 0.00 84 1014.4
20260505073104 10 173 0.0 0.0 0.00 0.00 0.00 82 1014.3
20260505071556 10 173 0.0 0.0 0.00 0.00 0.00 82 1014.2
20260505070054 10 173 0.0 0.0 0.00 0.00 0.00 81 1014.1
20260505064554 11 173 0.0 0.0 0.00 0.00 0.00 80 1014.0
20260505063053 11 173 0.0 0.0 0.00 0.00 0.00 80 1013.8
20260505061553 11 171 0.0 0.0 0.00 0.00 0.00 79 1013.7
20260505060052 11 235 0.0 0.0 0.00 0.00 0.00 78 1013.8
20260505054556 11 235 0.0 0.0 0.00 0.00 0.00 78 1013.8
20260505053051 12 188 0.0 0.0 0.00 0.00 0.00 77 1013.8
20260505051550 12 176 0.0 0.0 0.00 0.00 0.00 76 1013.6
20260505041549 13 219 0.0 0.0 0.00 0.00 0.00 76 1012.9
20260505040052 14 191 0.0 0.0 0.00 0.00 0.00 75 1012.6
20260505034551 15 191 0.0 0.0 0.00 0.00 0.00 74 1012.4
20260505033047 15 191 0.0 0.0 0.00 0.00 0.00 72 1012.0
20260505031556 16 191 0.0 0.0 0.00 0.00 0.00 70 1011.9
20260505030047 16 194 0.0 0.0 0.00 0.00 0.00 70 1011.6
20260505024551 17 225 0.0 1.6 0.00 0.00 0.00 68 1011.3
20260505023047 18 203 0.0 0.0 0.00 0.00 0.00 65 1011.2
20260505021544 19 181 0.0 0.0 0.00 0.00 0.00 64 1011.1
20260505020050 20 197 0.0 0.0 0.00 0.00 0.00 61 1011.2
20260505014601 20 203 0.0 0.0 0.00 0.00 0.00 62 1011.1
20260505013043 20 205 0.0 0.0 0.00 0.00 0.00 62 1011.1
20260505011549 20 235 0.0 1.6 0.00 0.00 0.00 61 1011.2
20260505010042 21 190 0.0 0.0 0.00 0.00 0.00 60 1011.3
20260505004542 22 284 0.0 0.0 0.00 0.00 0.00 59 1011.3
20260505003040 21 205 0.0 0.0 0.00 0.00 0.00 60 1011.3
20260505001544 22 149 0.0 0.0 0.00 0.00 0.00 59 1011.3
20260505000042 22 160 0.0 0.0 0.00 0.00 0.00 56 1011.5
20260504234537 22 209 0.0 0.0 0.00 0.00 0.00 57 1011.5
20260504233034 21 224 0.0 0.0 0.00 0.00 0.00 60 1011.6
20260504231533 21 88 0.0 0.0 0.00 0.00 0.00 60 1011.8
20260504230033 21 76 0.0 0.0 0.00 0.00 0.00 59 1011.9
20260504224537 21 165 0.0 0.0 0.00 0.00 0.00 59 1012.1
20260504223029 21 63 0.0 0.0 0.00 0.00 0.00 58 1012.3
20260504221525 20 192 0.0 0.0 0.00 0.00 0.00 61 1012.4
20260504220023 20 89 0.0 0.0 0.00 0.00 0.00 61 1012.6
20260504214526 20 190 0.0 0.0 0.00 0.00 0.00 60 1012.7
20260504213022 19 257 0.0 0.0 0.00 0.00 0.00 64 1012.8
20260504211518 19 243 0.0 1.6 0.00 0.00 0.00 63 1013.0
20260504210025 18 154 0.0 0.0 0.00 0.00 0.00 63 1013.2
20260504204526 18 108 0.0 0.0 0.00 0.00 0.00 64 1013.3
20260504203009 17 271 0.0 0.0 0.00 0.00 0.00 67 1013.5
20260504201508 18 173 0.0 0.0 0.00 0.00 0.00 65 1013.5
20260504200005 18 195 0.0 1.6 0.00 0.00 0.00 64 1013.7
20260504194505 17 147 0.0 0.0 0.00 0.00 0.00 66 1013.7
20260504193002 16 165 0.0 0.0 0.00 0.00 0.00 70 1013.7